User: anonymous   Login
Location: *
(51.0333°S, 178.4667°E)
Time: 10:12:25
(UTC+00:00)
Language:

MetOp-B - Orbit

View from above orbital plane
View from above orbital plane
View from above satellite
View from above satellite

Ground track
Ground track

The orbit data is extracted from the following two-line orbital elements,

1 38771U 12049A   20023.14962375 -.00000008  00000-0  16255-4 0  9998
2 38771  98.7141  84.5378 0002023  84.6713 329.4335 14.21484080381237
Epoch (UTC): 23 January 2020 03:35:27
Eccentricity: 0.0002023
inclination: 98.7141°
perigee height: 819 km
apogee height: 822 km
right ascension of ascending node: 84.5378°
argument of perigee: 84.6713°
revolutions per day: 14.21484080
mean anomaly at epoch: 329.4335°
orbit number at epoch: 38123

The dashed part of the orbit path shows where the satellite is in the earth's shadow,  

DLR